Location: Plum
(40.5000°N, 79.7500°W)
Time: 00:59:08
(UTC-05:00)

MOZ.5/SAFIR/RUBIN 5/SL-8 - Visible Passes

Search period start: 27 February 2015 00:00
Search period end: 09 March 2015 01:00
Orbit: 680 x 707 km, 97.8° (Epoch: 26 February)

Date Brightness Start Highest point End Pass type
(mag) Time Alt. Az. Time Alt. Az. Time Alt. Az.
27 Feb 6.4 04:05:51 10° ESE 04:08:54 18° ENE 04:12:09 10° NNE visible
27 Feb 4.0 05:41:40 10° S 05:46:12 48° W 05:50:47 10° NNW visible
27 Feb 6.6 19:18:30 10° NNW 19:21:59 20° WNW 19:25:19 10° WSW visible
28 Feb 5.0 04:44:20 10° SE 04:48:44 43° ENE 04:53:14 10° N visible
28 Feb 5.1 06:23:13 10° SW 06:26:37 19° W 06:29:53 10° NW visible
01 Mar 6.9 03:49:51 10° E 03:51:41 12° ENE 03:53:45 10° NE visible
01 Mar 3.7 05:24:04 10° S 05:28:45 74° W 05:33:30 10° NNW visible
01 Mar 6.1 19:00:37 10° N 19:04:43 28° WNW 19:08:44 10° SW visible
02 Mar 5.7 04:27:25 10° SE 04:31:26 29° ENE 04:35:33 10° N visible
02 Mar 4.6 06:04:58 10° SSW 06:09:02 28° W 06:13:05 10° NW visible
02 Mar 7.0 19:42:33 10° NW 19:44:27 12° WNW 19:46:05 10° W visible
03 Mar 3.9 05:06:40 10° SSE 05:11:21 75° ENE 05:16:07 10° N visible
03 Mar 5.4 18:42:55 10° N 18:47:25 41° WNW 18:51:51 10° SW visible
04 Mar 6.3 04:10:45 10° ESE 04:14:08 21° ENE 04:17:41 10° NNE visible
04 Mar 4.1 05:47:03 10° S 05:51:31 42° W 05:56:01 10° NNW visible
04 Mar 6.7 19:24:03 10° NNW 19:27:14 17° WNW 19:30:13 10° WSW visible
05 Mar 4.7 04:49:28 10° SSE 04:54:00 50° ENE 04:58:36 10° N visible
06 Mar 6.8 03:54:30 10° E 03:56:53 14° ENE 03:59:31 10° NNE visible
06 Mar 3.7 05:29:23 10° S 05:34:03 63° W 05:38:46 10° NNW visible
06 Mar 6.3 19:06:04 10° NNW 19:09:58 25° WNW 19:13:45 10° WSW visible
07 Mar 5.5 04:32:28 10° SE 04:36:40 34° ENE 04:40:58 10° N visible
07 Mar 4.8 06:10:29 10° SSW 06:14:22 24° W 06:18:12 10° NW visible
07 Mar 7.3 19:48:48 10° NW 19:49:40 10° WNW 19:50:14 10° WNW visible
08 Mar 3.8 06:11:54 10° SSE 06:16:37 86° ENE 06:21:24 10° NNW visible
08 Mar 5.7 19:48:17 10° N 19:52:40 35° WNW 19:56:57 10° SW visible
